GSAT0215 (GALILEO 19) (43055 NORAD) Tracking and Keplerian Element Data

This shows tracking and keplerian element data for the satellite.

Feedback or suggestion? Click here.




ElementValue
Catalog43055
NameGSAT0215 (GALILEO 19)
Epoch Orbit4038
Epoch Day159.92160618
Epoch Year2024
RAAN241.8542
Inclination55.3452
Eccentricity0.0002257
Argument of Perigee251.8387
Mean Anonmoly108.2078
Mean Motion1.70474764
Decay Rate2E-08
L11 43055U 17079A 24159.92160618 .00000002 00000+0 00000+0 0 9995
L22 43055 55.3452 241.8542 0002257 251.8387 108.2078 1.70474764 40380



Live tracking and technical data element details for GSAT0215 (GALILEO 19) (NORAD 43055). GSAT0215 (GALILEO 19) can be tracked NOW for your location showing map with azimuth and elevation plus other details from your city location.







IsCatalogInMostPopularTable: catalog: 43055, numindb: 885
Update: records affected: 1



GetName: 43055 GSAT0215 (GALILEO 19)

Hit Count: updated at: Tue, 17 Sep 2024 11:54:04 GMT